| time (UTC) | temp C | wind direction | speed KPH | gust KPH | rain 1hr cm | rain 24hr cm | rain mn cm | humidity % | barometer mb |
| 20260509044107 | 8 | 344 | 3.2 | 4.8 | 0.00 | 0.00 | 0.00 | 94 | 1019.0 |
| 20260509043608 | 8 | 344 | 3.2 | 4.8 | 0.00 | 0.00 | 0.00 | 94 | 1019.0 |
| 20260509043107 | 8 | 344 | 1.6 | 3.2 | 0.00 | 0.00 | 0.00 | 94 | 1019.0 |
| 20260509041108 | 8 | 5 | 1.6 | 4.8 | 0.00 | 0.00 | 0.00 | 93 | 1018.9 |
| 20260509040607 | 8 | 335 | 3.2 | 4.8 | 0.00 | 0.00 | 0.00 | 93 | 1018.9 |
| 20260509040107 | 8 | 355 | 3.2 | 4.8 | 0.00 | 0.00 | 0.00 | 93 | 1018.8 |
| 20260509034607 | 8 | 356 | 3.2 | 4.8 | 0.00 | 0.00 | 0.00 | 92 | 1018.9 |
| 20260509033107 | 8 | 11 | 1.6 | 4.8 | 0.00 | 0.00 | 0.00 | 92 | 1018.8 |
| 20260509031607 | 8 | 0 | 3.2 | 4.8 | 0.00 | 0.00 | 0.00 | 90 | 1018.7 |
| 20260509031108 | 8 | 1 | 3.2 | 4.8 | 0.00 | 0.00 | 0.00 | 90 | 1018.7 |
| 20260509030608 | 9 | 16 | 3.2 | 4.8 | 0.00 | 0.00 | 0.00 | 90 | 1018.7 |
| 20260509030107 | 9 | 352 | 1.6 | 4.8 | 0.00 | 0.00 | 0.00 | 89 | 1018.7 |
| 20260509024607 | 10 | 22 | 1.6 | 3.2 | 0.00 | 0.00 | 0.00 | 89 | 1018.7 |
| 20260509023607 | 10 | 71 | 0.0 | 3.2 | 0.00 | 0.00 | 0.00 | 90 | 1018.7 |
| 20260509023107 | 10 | 78 | 1.6 | 3.2 | 0.00 | 0.00 | 0.00 | 91 | 1018.7 |
| 20260509021607 | 10 | 107 | 1.6 | 4.8 | 0.00 | 0.00 | 0.00 | 90 | 1018.6 |
| 20260509021108 | 10 | 135 | 1.6 | 4.8 | 0.00 | 0.00 | 0.00 | 90 | 1018.6 |
| 20260509020607 | 11 | 126 | 3.2 | 4.8 | 0.00 | 0.00 | 0.00 | 90 | 1018.6 |
| 20260509020108 | 11 | 146 | 1.6 | 4.8 | 0.00 | 0.00 | 0.00 | 90 | 1018.6 |
| 20260509014608 | 11 | 140 | 1.6 | 4.8 | 0.00 | 0.00 | 0.00 | 90 | 1018.6 |
| 20260509014107 | 11 | 120 | 1.6 | 11.3 | 0.00 | 0.00 | 0.00 | 90 | 1018.6 |
| 20260509013608 | 11 | 140 | 3.2 | 11.3 | 0.00 | 0.00 | 0.00 | 90 | 1018.6 |
| 20260509013107 | 11 | 135 | 4.8 | 8.0 | 0.00 | 0.00 | 0.00 | 90 | 1018.7 |
| 20260509011607 | 11 | 140 | 3.2 | 9.7 | 0.00 | 0.00 | 0.00 | 90 | 1018.7 |
| 20260509011108 | 11 | 119 | 4.8 | 9.7 | 0.00 | 0.00 | 0.00 | 90 | 1018.7 |
| 20260509010607 | 11 | 139 | 4.8 | 9.7 | 0.00 | 0.00 | 0.00 | 90 | 1018.7 |
| 20260509010108 | 11 | 142 | 1.6 | 4.8 | 0.00 | 0.00 | 0.00 | 90 | 1018.7 |
| 20260509004607 | 11 | 144 | 4.8 | 11.3 | 0.00 | 0.00 | 0.00 | 91 | 1018.7 |
| 20260509004108 | 11 | 132 | 3.2 | 9.7 | 0.00 | 0.00 | 0.00 | 91 | 1018.8 |
| 20260509003608 | 11 | 128 | 3.2 | 4.8 | 0.00 | 0.00 | 0.00 | 91 | 1018.8 |
| 20260509001106 | 11 | 145 | 1.6 | 9.7 | 0.00 | 0.00 | 0.00 | 91 | 1018.6 |
| 20260509000107 | 11 | 109 | 3.2 | 9.7 | 0.00 | 0.00 | 0.00 | 91 | 1018.6 |
| 20260508234607 | 11 | 104 | 3.2 | 9.7 | 0.00 | 0.00 | 0.00 | 91 | 1018.7 |
| 20260508234108 | 11 | 114 | 3.2 | 4.8 | 0.00 | 0.00 | 0.00 | 91 | 1018.7 |
| 20260508231107 | 11 | 131 | 3.2 | 9.7 | 0.00 | 0.00 | 0.00 | 90 | 1018.8 |
| 20260508230607 | 11 | 125 | 4.8 | 11.3 | 0.00 | 0.00 | 0.00 | 90 | 1018.8 |
| 20260508230108 | 11 | 138 | 3.2 | 11.3 | 0.00 | 0.00 | 0.00 | 90 | 1018.8 |
| 20260508224608 | 11 | 100 | 4.8 | 12.9 | 0.00 | 0.00 | 0.00 | 90 | 1018.7 |
| 20260508224107 | 11 | 73 | 3.2 | 14.5 | 0.00 | 0.00 | 0.00 | 90 | 1018.7 |
| 20260508223607 | 11 | 109 | 3.2 | 14.5 | 0.00 | 0.00 | 0.00 | 90 | 1018.8 |
| 20260508223108 | 11 | 123 | 4.8 | 11.3 | 0.00 | 0.00 | 0.00 | 90 | 1018.7 |
| 20260508221607 | 11 | 114 | 6.4 | 14.5 | 0.00 | 0.00 | 0.00 | 90 | 1018.5 |
| 20260508220607 | 11 | 114 | 8.0 | 16.1 | 0.00 | 0.00 | 0.00 | 90 | 1018.5 |
| 20260508220108 | 11 | 117 | 6.4 | 16.1 | 0.00 | 0.00 | 0.00 | 90 | 1018.5 |
| 20260508213607 | 11 | 133 | 4.8 | 14.5 | 0.00 | 0.00 | 0.00 | 88 | 1018.5 |
| 20260508213107 | 11 | 119 | 8.0 | 14.5 | 0.00 | 0.00 | 0.00 | 88 | 1018.6 |
| 20260508211607 | 11 | 118 | 4.8 | 9.7 | 0.00 | 0.00 | 0.00 | 88 | 1018.5 |
| 20260508211106 | 11 | 124 | 3.2 | 12.9 | 0.00 | 0.00 | 0.00 | 87 | 1018.5 |
| 20260508210108 | 11 | 121 | 4.8 | 12.9 | 0.00 | 0.00 | 0.00 | 87 | 1018.5 |
| 20260508204608 | 12 | 134 | 8.0 | 14.5 | 0.00 | 0.00 | 0.00 | 86 | 1018.4 |
| 20260508204108 | 12 | 113 | 8.0 | 16.1 | 0.00 | 0.00 | 0.00 | 86 | 1018.4 |
| 20260508203607 | 12 | 106 | 9.7 | 16.1 | 0.00 | 0.00 | 0.00 | 86 | 1018.3 |
| 20260508203108 | 12 | 112 | 6.4 | 12.9 | 0.00 | 0.00 | 0.00 | 85 | 1018.3 |
| 20260508201107 | 12 | 88 | 4.8 | 12.9 | 0.00 | 0.00 | 0.00 | 83 | 1018.2 |
| 20260508200607 | 12 | 101 | 6.4 | 12.9 | 0.00 | 0.00 | 0.00 | 83 | 1018.2 |
| 20260508200107 | 12 | 125 | 6.4 | 14.5 | 0.00 | 0.00 | 0.00 | 82 | 1018.2 |
| 20260508194607 | 12 | 115 | 9.7 | 19.3 | 0.00 | 0.00 | 0.00 | 80 | 1017.9 |
| 20260508194107 | 12 | 119 | 9.7 | 20.9 | 0.00 | 0.00 | 0.00 | 79 | 1017.8 |
| 20260508193608 | 12 | 126 | 8.0 | 20.9 | 0.00 | 0.00 | 0.00 | 78 | 1017.7 |
| 20260508193107 | 13 | 113 | 8.0 | 19.3 | 0.00 | 0.00 | 0.00 | 77 | 1017.7 |
| 20260508191608 | 13 | 115 | 12.9 | 20.9 | 0.00 | 0.00 | 0.00 | 74 | 1017.5 |
| 20260508191107 | 13 | 117 | 9.7 | 19.3 | 0.00 | 0.00 | 0.00 | 73 | 1017.4 |
| 20260508190608 | 13 | 119 | 9.7 | 20.9 | 0.00 | 0.00 | 0.00 | 73 | 1017.4 |
| 20260508190107 | 13 | 115 | 8.0 | 22.5 | 0.00 | 0.00 | 0.00 | 71 | 1017.4 |
| 20260508184608 | 13 | 113 | 8.0 | 24.1 | 0.00 | 0.00 | 0.00 | 69 | 1017.2 |
| 20260508184107 | 13 | 133 | 8.0 | 19.3 | 0.00 | 0.00 | 0.00 | 68 | 1017.2 |
| 20260508183607 | 13 | 129 | 8.0 | 20.9 | 0.00 | 0.00 | 0.00 | 67 | 1017.2 |
| 20260508183107 | 13 | 124 | 9.7 | 20.9 | 0.00 | 0.00 | 0.00 | 66 | 1017.2 |
| 20260508181608 | 13 | 112 | 8.0 | 19.3 | 0.00 | 0.00 | 0.00 | 67 | 1017.2 |
| 20260508181108 | 13 | 123 | 11.3 | 20.9 | 0.00 | 0.00 | 0.00 | 67 | 1017.1 |
| 20260508180607 | 14 | 135 | 11.3 | 20.9 | 0.00 | 0.00 | 0.00 | 66 | 1017.2 |
| 20260508180108 | 14 | 136 | 9.7 | 19.3 | 0.00 | 0.00 | 0.00 | 66 | 1017.1 |
| 20260508174607 | 14 | 134 | 11.3 | 20.9 | 0.00 | 0.00 | 0.00 | 66 | 1017.1 |
| 20260508174107 | 14 | 117 | 9.7 | 20.9 | 0.00 | 0.00 | 0.00 | 67 | 1017.1 |
| 20260508173107 | 14 | 128 | 11.3 | 24.1 | 0.00 | 0.00 | 0.00 | 66 | 1017.0 |
| 20260508171607 | 14 | 121 | 9.7 | 22.5 | 0.00 | 0.00 | 0.00 | 66 | 1016.9 |
| 20260508170607 | 13 | 135 | 9.7 | 22.5 | 0.00 | 0.00 | 0.00 | 65 | 1016.8 |
| 20260508170108 | 13 | 128 | 11.3 | 22.5 | 0.00 | 0.00 | 0.00 | 65 | 1016.8 |
| 20260508164107 | 13 | 120 | 6.4 | 22.5 | 0.00 | 0.00 | 0.00 | 65 | 1016.8 |
| 20260508163607 | 13 | 143 | 8.0 | 19.3 | 0.00 | 0.00 | 0.00 | 66 | 1016.7 |
| 20260508163107 | 14 | 126 | 12.9 | 19.3 | 0.00 | 0.00 | 0.00 | 66 | 1016.7 |
| 20260508161607 | 14 | 137 | 8.0 | 19.3 | 0.00 | 0.00 | 0.00 | 66 | 1016.7 |
| 20260508161107 | 14 | 135 | 8.0 | 19.3 | 0.00 | 0.00 | 0.00 | 66 | 1016.7 |
| 20260508160607 | 14 | 130 | 8.0 | 19.3 | 0.00 | 0.00 | 0.00 | 64 | 1016.6 |
| 20260508160107 | 14 | 134 | 11.3 | 19.3 | 0.00 | 0.00 | 0.00 | 63 | 1016.7 |
| 20260508154607 | 15 | 143 | 4.8 | 19.3 | 0.00 | 0.00 | 0.00 | 60 | 1016.7 |
| 20260508154107 | 15 | 126 | 4.8 | 19.3 | 0.00 | 0.00 | 0.00 | 59 | 1016.7 |
| 20260508153607 | 15 | 139 | 8.0 | 22.5 | 0.00 | 0.00 | 0.00 | 58 | 1016.7 |
| 20260508151607 | 15 | 129 | 9.7 | 20.9 | 0.00 | 0.00 | 0.00 | 58 | 1016.7 |
| 20260508151108 | 15 | 131 | 11.3 | 19.3 | 0.00 | 0.00 | 0.00 | 58 | 1016.7 |
| 20260508150607 | 15 | 147 | 8.0 | 19.3 | 0.00 | 0.00 | 0.00 | 59 | 1016.6 |
| 20260508144107 | 15 | 111 | 8.0 | 22.5 | 0.00 | 0.00 | 0.00 | 62 | 1016.5 |
| 20260508143607 | 15 | 130 | 8.0 | 22.5 | 0.00 | 0.00 | 0.00 | 63 | 1016.6 |
| 20260508141607 | 16 | 114 | 11.3 | 22.5 | 0.00 | 0.00 | 0.00 | 62 | 1016.5 |
| 20260508141108 | 16 | 129 | 11.3 | 22.5 | 0.00 | 0.00 | 0.00 | 62 | 1016.5 |
| 20260508140607 | 16 | 143 | 11.3 | 20.9 | 0.00 | 0.00 | 0.00 | 62 | 1016.5 |
| 20260508140107 | 16 | 113 | 11.3 | 20.9 | 0.00 | 0.00 | 0.00 | 61 | 1016.5 |
| 20260508134607 | 16 | 116 | 8.0 | 19.3 | 0.00 | 0.00 | 0.00 | 66 | 1016.5 |
| 20260508133608 | 16 | 125 | 12.9 | 20.9 | 0.00 | 0.00 | 0.00 | 63 | 1016.6 |
| 20260508133107 | 16 | 139 | 11.3 | 22.5 | 0.00 | 0.00 | 0.00 | 63 | 1016.6 |
| 20260508131108 | 16 | 117 | 12.9 | 22.5 | 0.00 | 0.00 | 0.00 | 65 | 1016.6 |
| 20260508130108 | 16 | 124 | 11.3 | 22.5 | 0.00 | 0.00 | 0.00 | 64 | 1016.6 |
| 20260508124607 | 16 | 109 | 9.7 | 20.9 | 0.00 | 0.00 | 0.00 | 65 | 1016.6 |
| 20260508124107 | 16 | 137 | 4.8 | 19.3 | 0.00 | 0.00 | 0.00 | 65 | 1016.7 |
| 20260508123607 | 16 | 132 | 9.7 | 19.3 | 0.00 | 0.00 | 0.00 | 65 | 1016.7 |
| 20260508121607 | 16 | 125 | 9.7 | 22.5 | 0.00 | 0.00 | 0.00 | 65 | 1016.7 |
| 20260508121107 | 16 | 120 | 12.9 | 22.5 | 0.00 | 0.00 | 0.00 | 64 | 1016.7 |
| 20260508120607 | 17 | 124 | 9.7 | 16.1 | 0.00 | 0.00 | 0.00 | 63 | 1016.7 |
| 20260508120107 | 17 | 117 | 8.0 | 19.3 | 0.00 | 0.00 | 0.00 | 64 | 1016.7 |
| 20260508114608 | 17 | 149 | 4.8 | 16.1 | 0.00 | 0.00 | 0.00 | 62 | 1016.7 |
| 20260508114107 | 16 | 79 | 8.0 | 16.1 | 0.00 | 0.00 | 0.00 | 64 | 1016.7 |
| 20260508113607 | 16 | 67 | 4.8 | 12.9 | 0.00 | 0.00 | 0.00 | 65 | 1016.8 |
| 20260508113107 | 16 | 106 | 8.0 | 14.5 | 0.00 | 0.00 | 0.00 | 64 | 1016.8 |
| 20260508111607 | 16 | 112 | 4.8 | 14.5 | 0.00 | 0.00 | 0.00 | 65 | 1016.7 |
| 20260508111107 | 16 | 159 | 3.2 | 9.7 | 0.00 | 0.00 | 0.00 | 66 | 1016.8 |
| 20260508110607 | 16 | 169 | 4.8 | 14.5 | 0.00 | 0.00 | 0.00 | 66 | 1016.8 |
| 20260508110107 | 16 | 199 | 3.2 | 14.5 | 0.00 | 0.00 | 0.00 | 66 | 1016.7 |
| 20260508104607 | 15 | 125 | 8.0 | 14.5 | 0.00 | 0.00 | 0.00 | 69 | 1016.8 |
| 20260508104107 | 15 | 181 | 3.2 | 9.7 | 0.00 | 0.00 | 0.00 | 69 | 1016.8 |
| 20260508103607 | 15 | 215 | 4.8 | 11.3 | 0.00 | 0.00 | 0.00 | 72 | 1016.9 |
| 20260508101607 | 14 | 154 | 3.2 | 12.9 | 0.00 | 0.00 | 0.00 | 77 | 1017.0 |
| 20260508101107 | 14 | 166 | 6.4 | 12.9 | 0.00 | 0.00 | 0.00 | 75 | 1017.0 |
| 20260508100607 | 13 | 158 | 4.8 | 12.9 | 0.00 | 0.00 | 0.00 | 78 | 1017.0 |
| 20260508100108 | 13 | 138 | 8.0 | 12.9 | 0.00 | 0.00 | 0.00 | 78 | 1017.0 |
| 20260508094608 | 12 | 183 | 3.2 | 12.9 | 0.00 | 0.00 | 0.00 | 82 | 1016.9 |
| 20260508094108 | 12 | 222 | 3.2 | 12.9 | 0.00 | 0.00 | 0.00 | 82 | 1017.0 |
| 20260508093107 | 12 | 174 | 1.6 | 11.3 | 0.00 | 0.00 | 0.00 | 83 | 1016.9 |
| 20260508091607 | 12 | 160 | 1.6 | 4.8 | 0.00 | 0.00 | 0.00 | 85 | 1017.0 |
| 20260508091107 | 12 | 168 | 3.2 | 9.7 | 0.00 | 0.00 | 0.00 | 85 | 1017.0 |
| 20260508090107 | 11 | 172 | 4.8 | 9.7 | 0.00 | 0.00 | 0.00 | 86 | 1017.0 |
| 20260508084608 | 11 | 187 | 1.6 | 8.0 | 0.00 | 0.00 | 0.00 | 88 | 1017.0 |
| 20260508084108 | 11 | 159 | 3.2 | 8.0 | 0.00 | 0.00 | 0.00 | 87 | 1017.0 |
| 20260508083607 | 11 | 150 | 3.2 | 8.0 | 0.00 | 0.00 | 0.00 | 88 | 1017.0 |
| 20260508083107 | 11 | 171 | 3.2 | 8.0 | 0.00 | 0.00 | 0.00 | 88 | 1016.9 |
| 20260508081607 | 10 | 160 | 3.2 | 11.3 | 0.00 | 0.00 | 0.00 | 88 | 1016.8 |
| 20260508081107 | 10 | 151 | 6.4 | 12.9 | 0.00 | 0.00 | 0.00 | 89 | 1016.8 |
| 20260508080108 | 10 | 166 | 4.8 | 12.9 | 0.00 | 0.00 | 0.00 | 90 | 1016.7 |
| 20260508073607 | 10 | 143 | 1.6 | 4.8 | 0.00 | 0.00 | 0.00 | 89 | 1016.7 |
| 20260508073107 | 10 | 165 | 1.6 | 4.8 | 0.00 | 0.00 | 0.00 | 89 | 1016.6 |
| 20260508071607 | 10 | 156 | 3.2 | 8.0 | 0.00 | 0.00 | 0.00 | 89 | 1016.6 |
| 20260508071106 | 10 | 169 | 1.6 | 8.0 | 0.00 | 0.00 | 0.00 | 89 | 1016.6 |
| 20260508070608 | 10 | 210 | 1.6 | 4.8 | 0.00 | 0.00 | 0.00 | 89 | 1016.5 |
| 20260508064607 | 10 | 174 | 1.6 | 4.8 | 0.00 | 0.00 | 0.00 | 88 | 1016.3 |
| 20260508063607 | 10 | 142 | 1.6 | 4.8 | 0.00 | 0.00 | 0.00 | 87 | 1016.2 |
| 20260508063107 | 10 | 130 | 1.6 | 4.8 | 0.00 | 0.00 | 0.00 | 87 | 1016.2 |
| 20260508061607 | 10 | 162 | 3.2 | 8.0 | 0.00 | 0.00 | 0.00 | 88 | 1016.0 |
| 20260508061107 | 10 | 154 | 3.2 | 8.0 | 0.00 | 0.00 | 0.00 | 87 | 1016.0 |
| 20260508060607 | 10 | 140 | 1.6 | 4.8 | 0.00 | 0.00 | 0.00 | 88 | 1016.0 |
| 20260508054106 | 10 | 166 | 1.6 | 4.8 | 0.00 | 0.00 | 0.00 | 88 | 1015.8 |
| 20260508053607 | 10 | 122 | 3.2 | 4.8 | 0.00 | 0.00 | 0.00 | 88 | 1015.8 |
| 20260508051607 | 9 | 159 | 3.2 | 11.3 | 0.00 | 0.00 | 0.00 | 88 | 1015.6 |
| 20260508051107 | 9 | 160 | 1.6 | 4.8 | 0.00 | 0.00 | 0.00 | 88 | 1015.6 |
| 20260508050607 | 9 | 162 | 1.6 | 4.8 | 0.00 | 0.00 | 0.00 | 87 | 1015.7 |